This demonstration page uses our WeatherBlox Daily Observations layout. Learn more.

Left ArrowRight Arrow

Hourly Observations for November 1, 2020

Temp ( °F °C ) Dew Point ( °F °C ) Humidity (%) Winds ( mph kmh ) Pressure ( in mb ) Visibility ( mi km ) Precip ( " mm )
12:54 am 00:54 Clear 46 7.8 22 -5.6 38 38 NNW 15 24 30.35 1028 10 16.0934 0 0
1:54 am 01:54 Clear 44 6.7 19 -7.2 37 37 NNW 18 30 30.37 1029 10 16.0934 0 0
1:54 am 01:54 Clear 41 5 20 -6.7 43 43 N 17 28 30.39 1029 10 16.0934 0 0
2:54 am 02:54 Clear 39 3.9 20 -6.7 46 46 NW 7 11 30.41 1030 10 16.0934 0 0
3:54 am 03:54 Clear 37 2.8 20 -6.7 50 50 WNW 6 9 30.43 1030 10 16.0934 0 0
4:54 am 04:54 Clear 29 -1.7 19 -7.2 66 66 N 5 7 30.45 1031 10 16.0934 0 0
5:54 am 05:54 Clear 33 0.6 20 -6.7 58 58 W 10 17 30.5 1033 10 16.0934 0 0
6:54 am 06:54 Clear 33 0.6 20 -6.7 58 58 NW 8 13 30.52 1034 10 16.0934 0 0
7:54 am 07:54 Sunny 34 1.1 21 -6.1 59 59 NW 10 17 30.55 1035 10 16.0934 0 0
8:54 am 08:54 Sunny 39 3.9 22 -5.6 50 50 NNW 16 26 30.57 1035 10 16.0934 0 0
9:54 am 09:54 Sunny 42 5.6 21 -6.1 43 43 NW 13 20 30.59 1036 10 16.0934 0 0
10:54 am 10:54 Sunny 45 7.2 20 -6.7 37 37 N 10 17 30.6 1036 10 16.0934 0 0
11:54 am 11:54 Sunny 47 8.3 19 -7.2 33 33 N 10 17 30.59 1036 10 16.0934 0 0
12:54 pm 12:54 Sunny 49 9.4 19 -7.2 31 31 NE 8 13 30.57 1035 10 16.0934 0 0
1:54 pm 13:54 Sunny 50 10 18 -7.8 28 28 WNW 5 7 30.55 1035 10 16.0934 0 0
2:54 pm 14:54 Sunny 51 10.6 17 -8.3 26 26 E 3 6 30.55 1034 10 16.0934 0 0
3:54 pm 15:54 Sunny 50 10 16 -8.9 26 26 ESE 3 6 30.54 1034 10 16.0934 0 0
4:54 pm 16:54 Sunny 49 9.4 16 -8.9 27 27 Calm 30.54 1034 10 16.0934 0 0
5:54 pm 17:54 Clear 44 6.7 16 -8.9 32 32 Calm 30.53 1034 10 16.0934 0 0
6:54 pm 18:54 Clear 41 5 19 -7.2 41 41 Calm 30.54 1034 10 16.0934 0 0
7:54 pm 19:54 Clear 34 1.1 18 -7.8 52 52 Calm 30.55 1034 10 16.0934 0 0
8:54 pm 20:54 Clear 36 2.2 18 -7.8 48 48 SSE 3 6 30.53 1034 10 16.0934 0 0
9:54 pm 21:54 Clear 31 -0.6 18 -7.8 59 59 SE 3 6 30.51 1033 10 16.0934 0 0
10:54 pm 22:54 Clear 32 0 18 -7.8 56 56 SSE 5 7 30.49 1033 10 16.0934 0 0
11:54 pm 23:54 Clear 33 0.6 18 -7.8 54 54 S 3 6 30.48 1032 10 16.0934 0 0

Powered by AerisWeather